Zurück zum Katalog

FENGYUN 1C DEB

AktivSSO
NORAD 32093·DEBRIS·🇨🇳 China

Gestartet May 10, 1999 von Taiyuan Satellite Launch Center

Loading…

Nächste Überflüge (nächste 24 Stunden)

TLE

AktuellSource: Space-Track

Epoche: Sep 13, 2026, 13:58 UTC

1 32093U 99025CQK 26256.58250766  .00000597  00000-0  20543-3 0  9990
2 32093  98.8879 124.4214 0077375 262.4611  96.7780 14.38199997  3535

Verfolge FENGYUN 1C DEB in Echtzeit mit AllMySat

Download on the App Store